NUSAT-17 (MARY) (46835 NORAD) Tracking and Keplerian Element Data

This shows tracking and keplerian element data for the satellite.

Feedback or suggestion? Click here.




ElementValue
Catalog46835
NameNUSAT-17 (MARY)
Epoch Orbit1161
Epoch Day21.0566059
Epoch Year2021
RAAN97.7583
Inclination97.2601
Eccentricity0.000944
Argument of Perigee14.6587
Mean Anonmoly80.8306
Mean Motion15.3146067
Decay Rate2.34E-06
L11 46835U 20079J 21021.05660590 .00000234 00000-0 10142-4 0 9992
L22 46835 97.2601 97.7583 0009440 14.6587 80.8306 15.31460670 11617

Live tracking and technical data element details for NUSAT-17 (MARY) (NORAD 46835). NUSAT-17 (MARY) can be tracked NOW for your location showing map with azimuth and elevation plus other details from your city location.

Track the satellite on the map from your city or location and see movement details for azimuth, elevation, latitude, longitude, range, height, and movement on the map or in text.







IsCatalogInMostPopularTable: catalog: 46835, numindb: 29
Update: records affected: 1



GetName: 46835 NUSAT-17 (MARY)

Hit Count: updated at: Fri, 22 Jan 2021 19:31:02 GMT